Year,Month,Day,Hour,Minute,Value (Times are PST for temperature in C)
2008,07,12,00,00,15.40
2008,07,12,00,01,15.40
2008,07,12,00,02,15.40
2008,07,12,00,03,15.40
2008,07,12,00,04,15.40
2008,07,12,00,05,15.30
2008,07,12,00,06,15.30
2008,07,12,00,07,15.30
2008,07,12,00,08,15.30
2008,07,12,00,09,15.20
2008,07,12,00,10,15.20
2008,07,12,00,11,15.20
2008,07,12,00,12,15.20
2008,07,12,00,13,15.20
2008,07,12,00,14,15.20
2008,07,12,00,15,15.20
2008,07,12,00,16,15.20
2008,07,12,00,17,15.20
2008,07,12,00,18,15.20
2008,07,12,00,19,15.20
2008,07,12,00,20,15.10
2008,07,12,00,21,15.10
2008,07,12,00,22,15.00
2008,07,12,00,23,15.00
2008,07,12,00,24,15.00
2008,07,12,00,25,15.00
2008,07,12,00,26,15.00
2008,07,12,00,27,15.00
2008,07,12,00,28,15.00
2008,07,12,00,29,15.00
2008,07,12,00,30,15.00
2008,07,12,00,31,15.00
2008,07,12,00,32,15.00
2008,07,12,00,33,15.00
2008,07,12,00,34,15.00
2008,07,12,00,35,15.00
2008,07,12,00,36,15.00
2008,07,12,00,37,15.00
2008,07,12,00,38,15.00
2008,07,12,00,39,15.00
2008,07,12,00,40,15.00
2008,07,12,00,41,15.00
2008,07,12,00,42,15.00
2008,07,12,00,43,15.00
2008,07,12,00,44,15.00
2008,07,12,00,45,15.00
2008,07,12,00,46,15.00
2008,07,12,00,47,15.00
2008,07,12,00,48,15.00
2008,07,12,00,49,15.00
2008,07,12,00,50,15.00
2008,07,12,00,51,15.00
2008,07,12,00,52,15.00
2008,07,12,00,53,15.00
2008,07,12,00,54,15.00
2008,07,12,00,55,15.00
2008,07,12,00,56,15.00
2008,07,12,00,57,15.00
2008,07,12,00,58,15.00
2008,07,12,00,59,15.00
2008,07,12,01,00,15.00
2008,07,12,01,01,15.00
2008,07,12,01,02,15.00
2008,07,12,01,03,15.00
2008,07,12,01,04,15.00
2008,07,12,01,05,15.00
2008,07,12,01,06,15.00
2008,07,12,01,07,15.00
2008,07,12,01,08,15.00
2008,07,12,01,09,15.00
2008,07,12,01,10,15.00
2008,07,12,01,11,15.00
2008,07,12,01,12,14.90
2008,07,12,01,13,14.90
2008,07,12,01,14,14.90
2008,07,12,01,15,14.80
2008,07,12,01,16,14.80
2008,07,12,01,17,14.80
2008,07,12,01,18,14.70
2008,07,12,01,19,14.70
2008,07,12,01,20,14.70
2008,07,12,01,21,14.70
2008,07,12,01,22,14.70
2008,07,12,01,23,14.60
2008,07,12,01,24,14.60
2008,07,12,01,25,14.60
2008,07,12,01,26,14.60
2008,07,12,01,27,14.50
2008,07,12,01,28,14.50
2008,07,12,01,29,14.50
2008,07,12,01,30,14.40
2008,07,12,01,31,14.40
2008,07,12,01,32,14.40
2008,07,12,01,33,14.40
2008,07,12,01,34,14.40
2008,07,12,01,35,14.30
2008,07,12,01,36,14.30
2008,07,12,01,37,14.30
2008,07,12,01,38,14.30
2008,07,12,01,39,14.30
2008,07,12,01,40,14.30
2008,07,12,01,41,14.20
2008,07,12,01,42,14.20
2008,07,12,01,43,14.20
2008,07,12,01,44,14.20
2008,07,12,01,45,14.10
2008,07,12,01,46,14.10
2008,07,12,01,47,14.10
2008,07,12,01,48,14.10
2008,07,12,01,49,14.10
2008,07,12,01,50,14.10
2008,07,12,01,51,14.10
2008,07,12,01,52,14.00
2008,07,12,01,53,14.00
2008,07,12,01,54,14.00
2008,07,12,01,55,14.00
2008,07,12,01,56,14.00
2008,07,12,01,57,13.90
2008,07,12,01,58,13.90
2008,07,12,01,59,13.90
2008,07,12,02,00,13.90
2008,07,12,02,01,13.90
2008,07,12,02,02,14.00
2008,07,12,02,03,14.00
2008,07,12,02,04,14.10
2008,07,12,02,05,14.10
2008,07,12,02,06,14.10
2008,07,12,02,07,14.10
2008,07,12,02,08,14.20
2008,07,12,02,09,14.10
2008,07,12,02,10,14.10
2008,07,12,02,11,14.10
2008,07,12,02,12,14.10
2008,07,12,02,13,14.10
2008,07,12,02,14,14.10
2008,07,12,02,15,14.10
2008,07,12,02,16,14.10
2008,07,12,02,17,14.10
2008,07,12,02,18,14.10
2008,07,12,02,19,14.10
2008,07,12,02,20,14.10
2008,07,12,02,21,14.00
2008,07,12,02,22,14.00
2008,07,12,02,23,14.00
2008,07,12,02,24,14.00
2008,07,12,02,25,13.90
2008,07,12,02,26,13.90
2008,07,12,02,27,13.90
2008,07,12,02,28,13.90
2008,07,12,02,29,13.90
2008,07,12,02,30,13.90
2008,07,12,02,31,14.00
2008,07,12,02,32,14.00
2008,07,12,02,33,14.00
2008,07,12,02,34,14.00
2008,07,12,02,35,14.00
2008,07,12,02,36,14.00
2008,07,12,02,37,14.00
2008,07,12,02,38,14.10
2008,07,12,02,39,14.10
2008,07,12,02,40,14.10
2008,07,12,02,41,14.10
2008,07,12,02,42,14.10
2008,07,12,02,43,14.10
2008,07,12,02,44,14.00
2008,07,12,02,45,14.00
2008,07,12,02,46,14.00
2008,07,12,02,47,13.90
2008,07,12,02,48,13.90
2008,07,12,02,49,13.90
2008,07,12,02,50,13.90
2008,07,12,02,51,13.90
2008,07,12,02,52,13.80
2008,07,12,02,53,13.80
2008,07,12,02,54,13.80
2008,07,12,02,55,13.80
2008,07,12,02,56,13.70
2008,07,12,02,57,13.70
2008,07,12,02,58,13.70
2008,07,12,02,59,13.70
2008,07,12,03,00,13.70
2008,07,12,03,01,13.70
2008,07,12,03,02,13.60
2008,07,12,03,03,13.60
2008,07,12,03,04,13.60
2008,07,12,03,05,13.60
2008,07,12,03,06,13.50
2008,07,12,03,07,13.50
2008,07,12,03,08,13.50
2008,07,12,03,09,13.40
2008,07,12,03,10,13.40
2008,07,12,03,11,13.40
2008,07,12,03,12,13.30
2008,07,12,03,13,13.30
2008,07,12,03,14,13.30
2008,07,12,03,15,13.30
2008,07,12,03,16,13.30
2008,07,12,03,17,13.30
2008,07,12,03,18,13.30
2008,07,12,03,19,13.30
2008,07,12,03,20,13.30
2008,07,12,03,21,13.20
2008,07,12,03,22,13.20
2008,07,12,03,23,13.20
2008,07,12,03,24,13.20
2008,07,12,03,25,13.10
2008,07,12,03,26,13.10
2008,07,12,03,27,13.10
2008,07,12,03,28,13.10
2008,07,12,03,29,13.10
2008,07,12,03,30,13.10
2008,07,12,03,31,13.10
2008,07,12,03,32,13.10
2008,07,12,03,33,13.10
2008,07,12,03,34,13.00
2008,07,12,03,35,13.00
2008,07,12,03,36,13.00
2008,07,12,03,37,13.00
2008,07,12,03,38,13.00
2008,07,12,03,39,13.00
2008,07,12,03,40,13.00
2008,07,12,03,41,13.00
2008,07,12,03,42,13.00
2008,07,12,03,43,13.00
2008,07,12,03,44,13.00
2008,07,12,03,45,13.00
2008,07,12,03,46,12.90
2008,07,12,03,47,12.90
2008,07,12,03,48,12.90
2008,07,12,03,49,12.90
2008,07,12,03,50,12.80
2008,07,12,03,51,12.80
2008,07,12,03,52,12.80
2008,07,12,03,53,12.80
2008,07,12,03,54,12.70
2008,07,12,03,55,12.70
2008,07,12,03,56,12.70
2008,07,12,03,57,12.60
2008,07,12,03,58,12.60
2008,07,12,03,59,12.60
2008,07,12,04,00,12.50
2008,07,12,04,01,12.50
2008,07,12,04,02,12.50
2008,07,12,04,03,12.50
2008,07,12,04,04,12.40
2008,07,12,04,05,12.40
2008,07,12,04,06,12.40
2008,07,12,04,07,12.40
2008,07,12,04,08,12.40
2008,07,12,04,09,12.40
2008,07,12,04,10,12.40
2008,07,12,04,11,12.40
2008,07,12,04,12,12.40
2008,07,12,04,13,12.40
2008,07,12,04,14,12.40
2008,07,12,04,15,12.40
2008,07,12,04,16,12.30
2008,07,12,04,17,12.30
2008,07,12,04,18,12.30
2008,07,12,04,19,12.30
2008,07,12,04,20,12.30
2008,07,12,04,21,12.30
2008,07,12,04,22,12.30
2008,07,12,04,23,12.30
2008,07,12,04,24,12.30
2008,07,12,04,25,12.20
2008,07,12,04,26,12.20
2008,07,12,04,27,12.20
2008,07,12,04,28,12.20
2008,07,12,04,29,12.20
2008,07,12,04,30,12.20
2008,07,12,04,31,12.20
2008,07,12,04,32,12.20
2008,07,12,04,33,12.20
2008,07,12,04,34,12.20
2008,07,12,04,35,12.20
2008,07,12,04,36,12.20
2008,07,12,04,37,12.20
2008,07,12,04,38,12.20
2008,07,12,04,39,12.20
2008,07,12,04,40,12.20
2008,07,12,04,41,12.20
2008,07,12,04,42,12.20
2008,07,12,04,43,12.20
2008,07,12,04,44,12.20
2008,07,12,04,45,12.20
2008,07,12,04,46,12.20
2008,07,12,04,47,12.20
2008,07,12,04,48,12.20
2008,07,12,04,49,12.20
2008,07,12,04,50,12.20
2008,07,12,04,51,12.20
2008,07,12,04,52,12.20
2008,07,12,04,53,12.20
2008,07,12,04,54,12.20
2008,07,12,04,55,12.10
2008,07,12,04,56,12.10
2008,07,12,04,57,12.10
2008,07,12,04,58,12.10
2008,07,12,04,59,12.10
2008,07,12,05,00,12.10
2008,07,12,05,01,12.10
2008,07,12,05,02,12.10
2008,07,12,05,03,12.00
2008,07,12,05,04,12.00
2008,07,12,05,05,12.00
2008,07,12,05,06,12.00
2008,07,12,05,07,12.00
2008,07,12,05,08,12.00
2008,07,12,05,09,12.00
2008,07,12,05,10,12.00
2008,07,12,05,11,11.90
2008,07,12,05,12,11.90
2008,07,12,05,13,11.90
2008,07,12,05,14,11.90
2008,07,12,05,15,11.90
2008,07,12,05,16,11.90
2008,07,12,05,17,11.90
2008,07,12,05,18,11.90
2008,07,12,05,19,11.90
2008,07,12,05,20,11.90
2008,07,12,05,21,11.90
2008,07,12,05,22,11.90
2008,07,12,05,23,11.80
2008,07,12,05,24,11.80
2008,07,12,05,25,11.80
2008,07,12,05,26,11.80
2008,07,12,05,27,11.80
2008,07,12,05,28,11.80
2008,07,12,05,29,11.70
2008,07,12,05,30,11.70
2008,07,12,05,31,11.70
2008,07,12,05,32,11.70
2008,07,12,05,33,11.70
2008,07,12,05,34,11.70
2008,07,12,05,35,11.60
2008,07,12,05,36,11.60
2008,07,12,05,37,11.60
2008,07,12,05,38,11.60
2008,07,12,05,39,11.60
2008,07,12,05,40,11.60
2008,07,12,05,41,11.60
2008,07,12,05,42,11.60
2008,07,12,05,43,11.60
2008,07,12,05,44,11.60
2008,07,12,05,45,11.60
2008,07,12,05,46,11.60
2008,07,12,05,47,11.60
2008,07,12,05,48,11.60
2008,07,12,05,49,11.60
2008,07,12,05,50,11.70
2008,07,12,05,51,11.70
2008,07,12,05,52,11.70
2008,07,12,05,53,11.70
2008,07,12,05,54,11.70
2008,07,12,05,55,11.70
2008,07,12,05,56,11.70
2008,07,12,05,57,11.70
2008,07,12,05,58,11.70
2008,07,12,05,59,11.70
2008,07,12,06,00,11.70
2008,07,12,06,01,11.70
2008,07,12,06,02,11.70
2008,07,12,06,03,11.70
2008,07,12,06,04,11.70
2008,07,12,06,05,11.70
2008,07,12,06,06,11.80
2008,07,12,06,07,11.80
2008,07,12,06,08,11.80
2008,07,12,06,09,11.80
2008,07,12,06,10,11.80
2008,07,12,06,11,11.80
2008,07,12,06,12,11.90
2008,07,12,06,13,11.90
2008,07,12,06,14,11.90
2008,07,12,06,15,11.90
2008,07,12,06,16,11.90
2008,07,12,06,17,11.90
2008,07,12,06,18,12.00
2008,07,12,06,19,12.00
2008,07,12,06,20,12.00
2008,07,12,06,21,12.00
2008,07,12,06,22,12.00
2008,07,12,06,23,12.10
2008,07,12,06,24,12.10
2008,07,12,06,25,12.10
2008,07,12,06,26,12.20
2008,07,12,06,27,12.20
2008,07,12,06,28,12.30
2008,07,12,06,29,12.30
2008,07,12,06,30,12.30
2008,07,12,06,31,12.40
2008,07,12,06,32,12.40
2008,07,12,06,33,12.40
2008,07,12,06,34,12.40
2008,07,12,06,35,12.50
2008,07,12,06,36,12.50
2008,07,12,06,37,12.60
2008,07,12,06,38,12.60
2008,07,12,06,39,12.60
2008,07,12,06,40,12.70
2008,07,12,06,41,12.70
2008,07,12,06,42,12.80
2008,07,12,06,43,12.80
2008,07,12,06,44,12.90
2008,07,12,06,45,12.90
2008,07,12,06,46,13.00
2008,07,12,06,47,13.00
2008,07,12,06,48,13.10
2008,07,12,06,49,13.10
2008,07,12,06,50,13.20
2008,07,12,06,51,13.20
2008,07,12,06,52,13.30
2008,07,12,06,53,13.30
2008,07,12,06,54,13.40
2008,07,12,06,55,13.40
2008,07,12,06,56,13.50
2008,07,12,06,57,13.50
2008,07,12,06,58,13.60
2008,07,12,06,59,13.60
2008,07,12,07,00,13.70
2008,07,12,07,01,13.70
2008,07,12,07,02,13.80
2008,07,12,07,03,13.80
2008,07,12,07,04,13.90
2008,07,12,07,05,13.90
2008,07,12,07,06,14.00
2008,07,12,07,07,14.10
2008,07,12,07,08,14.10
2008,07,12,07,09,14.20
2008,07,12,07,10,14.30
2008,07,12,07,11,14.40
2008,07,12,07,12,14.50
2008,07,12,07,13,14.60
2008,07,12,07,14,14.60
2008,07,12,07,15,14.70
2008,07,12,07,16,14.70
2008,07,12,07,17,14.80
2008,07,12,07,18,14.80
2008,07,12,07,19,14.90
2008,07,12,07,20,15.00
2008,07,12,07,21,15.00
2008,07,12,07,22,15.00
2008,07,12,07,23,15.00
2008,07,12,07,24,15.00
2008,07,12,07,25,15.10
2008,07,12,07,26,15.10
2008,07,12,07,27,15.20
2008,07,12,07,28,15.30
2008,07,12,07,29,15.30
2008,07,12,07,30,15.30
2008,07,12,07,31,15.30
2008,07,12,07,32,15.30
2008,07,12,07,33,15.40
2008,07,12,07,34,15.40
2008,07,12,07,35,15.40
2008,07,12,07,36,15.50
2008,07,12,07,37,15.50
2008,07,12,07,38,15.60
2008,07,12,07,39,15.60
2008,07,12,07,40,15.70
2008,07,12,07,41,15.80
2008,07,12,07,42,15.90
2008,07,12,07,43,16.00
2008,07,12,07,44,16.00
2008,07,12,07,45,16.10
2008,07,12,07,46,16.10
2008,07,12,07,47,16.20
2008,07,12,07,48,16.20
2008,07,12,07,49,16.20
2008,07,12,07,50,16.30
2008,07,12,07,51,16.30
2008,07,12,07,52,16.40
2008,07,12,07,53,16.40
2008,07,12,07,54,16.40
2008,07,12,07,55,16.50
2008,07,12,07,56,16.50
2008,07,12,07,57,16.60
2008,07,12,07,58,16.60
2008,07,12,07,59,16.60
2008,07,12,08,00,16.70
2008,07,12,08,01,16.70
2008,07,12,08,02,16.70
2008,07,12,08,03,16.70
2008,07,12,08,04,16.80
2008,07,12,08,05,16.80
2008,07,12,08,06,16.80
2008,07,12,08,07,16.90
2008,07,12,08,08,17.00
2008,07,12,08,09,17.10
2008,07,12,08,10,17.20
2008,07,12,08,11,17.30
2008,07,12,08,12,17.40
2008,07,12,08,13,17.50
2008,07,12,08,14,17.60
2008,07,12,08,15,17.60
2008,07,12,08,16,17.70
2008,07,12,08,17,17.80
2008,07,12,08,18,17.90
2008,07,12,08,19,18.00
2008,07,12,08,20,18.10
2008,07,12,08,21,18.20
2008,07,12,08,22,18.30
2008,07,12,08,23,18.30
2008,07,12,08,24,18.40
2008,07,12,08,25,18.40
2008,07,12,08,26,18.50
2008,07,12,08,27,18.50
2008,07,12,08,28,18.60
2008,07,12,08,29,18.70
2008,07,12,08,30,18.70
2008,07,12,08,31,18.80
2008,07,12,08,32,18.90
2008,07,12,08,33,19.00
2008,07,12,08,34,19.20
2008,07,12,08,35,19.30
2008,07,12,08,36,19.40
2008,07,12,08,37,19.50
2008,07,12,08,38,19.60
2008,07,12,08,39,19.60
2008,07,12,08,40,19.70
2008,07,12,08,41,19.80
2008,07,12,08,42,19.90
2008,07,12,08,43,20.00
2008,07,12,08,44,20.00
2008,07,12,08,45,20.10
2008,07,12,08,46,20.10
2008,07,12,08,47,20.20
2008,07,12,08,48,20.20
2008,07,12,08,49,20.20
2008,07,12,08,50,20.20
2008,07,12,08,51,20.20
2008,07,12,08,52,20.20
2008,07,12,08,53,20.20
2008,07,12,08,54,20.20
2008,07,12,08,55,20.20
2008,07,12,08,56,20.20
2008,07,12,08,57,20.20
2008,07,12,08,58,20.20
2008,07,12,08,59,20.20
2008,07,12,09,00,20.20
2008,07,12,09,01,20.20
2008,07,12,09,02,20.10
2008,07,12,09,03,20.10
2008,07,12,09,04,20.10
2008,07,12,09,05,20.10
2008,07,12,09,06,20.10
2008,07,12,09,07,20.20
2008,07,12,09,08,20.20
2008,07,12,09,09,20.30
2008,07,12,09,10,20.40
2008,07,12,09,11,20.40
2008,07,12,09,12,20.50
2008,07,12,09,13,20.60
2008,07,12,09,14,20.60
2008,07,12,09,15,20.70
2008,07,12,09,16,20.70
2008,07,12,09,17,20.80
2008,07,12,09,18,20.80
2008,07,12,09,19,20.90
2008,07,12,09,20,20.90
2008,07,12,09,21,20.80
2008,07,12,09,22,20.80
2008,07,12,09,23,20.80
2008,07,12,09,24,20.80
2008,07,12,09,25,20.80
2008,07,12,09,26,20.90
2008,07,12,09,27,21.00
2008,07,12,09,28,21.10
2008,07,12,09,29,21.20
2008,07,12,09,30,21.30
2008,07,12,09,31,21.30
2008,07,12,09,32,21.40
2008,07,12,09,33,21.40
2008,07,12,09,34,21.40
2008,07,12,09,35,21.50
2008,07,12,09,36,21.50
2008,07,12,09,37,21.50
2008,07,12,09,38,21.40
2008,07,12,09,39,21.40
2008,07,12,09,40,21.30
2008,07,12,09,41,21.30
2008,07,12,09,42,21.20
2008,07,12,09,43,21.20
2008,07,12,09,44,21.20
2008,07,12,09,45,21.20
2008,07,12,09,46,21.30
2008,07,12,09,47,21.30
2008,07,12,09,48,21.50
2008,07,12,09,49,21.60
2008,07,12,09,50,21.70
2008,07,12,09,51,21.80
2008,07,12,09,52,21.90
2008,07,12,09,53,22.00
2008,07,12,09,54,22.20
2008,07,12,09,55,22.30
2008,07,12,09,56,22.40
2008,07,12,09,57,22.50
2008,07,12,09,58,22.60
2008,07,12,09,59,22.70
2008,07,12,10,00,22.80
2008,07,12,10,01,22.80
2008,07,12,10,02,22.90
2008,07,12,10,03,22.90
2008,07,12,10,04,22.90
2008,07,12,10,05,22.90
2008,07,12,10,06,22.90
2008,07,12,10,07,22.90
2008,07,12,10,08,22.80
2008,07,12,10,09,22.80
2008,07,12,10,10,22.90
2008,07,12,10,11,22.90
2008,07,12,10,12,22.70
2008,07,12,10,13,22.60
2008,07,12,10,14,22.50
2008,07,12,10,15,22.40
2008,07,12,10,16,22.40
2008,07,12,10,17,22.40
2008,07,12,10,18,22.40
2008,07,12,10,19,22.40
2008,07,12,10,20,22.30
2008,07,12,10,21,22.30
2008,07,12,10,22,22.30
2008,07,12,10,23,22.30
2008,07,12,10,24,22.30
2008,07,12,10,25,22.30
2008,07,12,10,26,22.30
2008,07,12,10,27,22.30
2008,07,12,10,28,22.40
2008,07,12,10,29,22.50
2008,07,12,10,30,22.60
2008,07,12,10,31,22.70
2008,07,12,10,32,22.80
2008,07,12,10,33,22.80
2008,07,12,10,34,22.90
2008,07,12,10,35,22.90
2008,07,12,10,36,22.80
2008,07,12,10,37,22.80
2008,07,12,10,38,22.90
2008,07,12,10,39,22.90
2008,07,12,10,40,23.00
2008,07,12,10,41,23.20
2008,07,12,10,42,23.40
2008,07,12,10,43,23.60
2008,07,12,10,44,23.70
2008,07,12,10,45,23.80
2008,07,12,10,46,23.90
2008,07,12,10,47,23.90
2008,07,12,10,48,24.00
2008,07,12,10,49,24.00
2008,07,12,10,50,24.00
2008,07,12,10,51,23.70
2008,07,12,10,52,23.60
2008,07,12,10,53,23.40
2008,07,12,10,54,23.30
2008,07,12,10,55,23.20
2008,07,12,10,56,23.20
2008,07,12,10,57,23.10
2008,07,12,10,58,23.10
2008,07,12,10,59,23.10
2008,07,12,11,00,23.10
2008,07,12,11,01,23.20
2008,07,12,11,02,23.30
2008,07,12,11,03,23.40
2008,07,12,11,04,23.40
2008,07,12,11,05,23.40
2008,07,12,11,06,23.30
2008,07,12,11,07,23.20
2008,07,12,11,08,23.10
2008,07,12,11,09,23.00
2008,07,12,11,10,22.90
2008,07,12,11,11,22.80
2008,07,12,11,12,22.70
2008,07,12,11,13,22.70
2008,07,12,11,14,22.70
2008,07,12,11,15,22.70
2008,07,12,11,16,22.80
2008,07,12,11,17,23.00
2008,07,12,11,18,23.10
2008,07,12,11,19,23.30
2008,07,12,11,20,23.40
2008,07,12,11,21,23.60
2008,07,12,11,22,23.70
2008,07,12,11,23,23.70
2008,07,12,11,24,23.70
2008,07,12,11,25,23.70
2008,07,12,11,26,23.60
2008,07,12,11,27,23.70
2008,07,12,11,28,23.70
2008,07,12,11,29,23.80
2008,07,12,11,30,23.80
2008,07,12,11,31,23.90
2008,07,12,11,32,23.90
2008,07,12,11,33,23.90
2008,07,12,11,34,24.00
2008,07,12,11,35,24.10
2008,07,12,11,36,24.20
2008,07,12,11,37,24.20
2008,07,12,11,38,24.20
2008,07,12,11,39,24.10
2008,07,12,11,40,24.10
2008,07,12,11,41,24.00
2008,07,12,11,42,24.00
2008,07,12,11,43,23.90
2008,07,12,11,44,23.90
2008,07,12,11,45,23.90
2008,07,12,11,46,23.80
2008,07,12,11,47,23.80
2008,07,12,11,48,23.70
2008,07,12,11,49,23.70
2008,07,12,11,50,23.70
2008,07,12,11,51,23.70
2008,07,12,11,52,23.60
2008,07,12,11,53,23.60
2008,07,12,11,54,23.50
2008,07,12,11,55,23.50
2008,07,12,11,56,23.40
2008,07,12,11,57,23.40
2008,07,12,11,58,23.40
2008,07,12,11,59,23.40
2008,07,12,12,00,23.40
2008,07,12,12,01,23.40
2008,07,12,12,02,23.40
2008,07,12,12,03,23.50
2008,07,12,12,04,23.50
2008,07,12,12,05,23.60
2008,07,12,12,06,23.70
2008,07,12,12,07,23.80
2008,07,12,12,08,23.80
2008,07,12,12,09,23.90
2008,07,12,12,10,24.00
2008,07,12,12,11,24.00
2008,07,12,12,12,24.00
2008,07,12,12,13,24.10
2008,07,12,12,14,24.20
2008,07,12,12,15,24.30
2008,07,12,12,16,24.40
2008,07,12,12,17,24.40
2008,07,12,12,18,24.40
2008,07,12,12,19,24.40
2008,07,12,12,20,24.40
2008,07,12,12,21,24.40
2008,07,12,12,22,24.60
2008,07,12,12,23,24.70
2008,07,12,12,24,24.80
2008,07,12,12,25,24.90
2008,07,12,12,26,25.00
2008,07,12,12,27,25.00
2008,07,12,12,28,24.90
2008,07,12,12,29,24.90
2008,07,12,12,30,24.80
2008,07,12,12,31,24.70
2008,07,12,12,32,24.60
2008,07,12,12,33,24.50
2008,07,12,12,34,24.40
2008,07,12,12,35,24.40
2008,07,12,12,36,24.30
2008,07,12,12,37,24.40
2008,07,12,12,38,24.40
2008,07,12,12,39,24.40
2008,07,12,12,40,24.30
2008,07,12,12,41,24.30
2008,07,12,12,42,24.30
2008,07,12,12,43,24.20
2008,07,12,12,44,24.20
2008,07,12,12,45,24.20
2008,07,12,12,46,24.30
2008,07,12,12,47,24.30
2008,07,12,12,48,24.30
2008,07,12,12,49,24.30
2008,07,12,12,50,24.30
2008,07,12,12,51,24.30
2008,07,12,12,52,24.40
2008,07,12,12,53,24.50
2008,07,12,12,54,24.60
2008,07,12,12,55,24.60
2008,07,12,12,56,24.60
2008,07,12,12,57,24.60
2008,07,12,12,58,24.70
2008,07,12,12,59,24.70
2008,07,12,13,00,24.70
2008,07,12,13,01,24.80
2008,07,12,13,02,24.90
2008,07,12,13,03,25.00
2008,07,12,13,04,25.20
2008,07,12,13,05,25.30
2008,07,12,13,06,25.40
2008,07,12,13,07,25.40
2008,07,12,13,08,25.30
2008,07,12,13,09,25.20
2008,07,12,13,10,25.00
2008,07,12,13,11,24.90
2008,07,12,13,12,24.90
2008,07,12,13,13,24.90
2008,07,12,13,14,24.90
2008,07,12,13,15,24.80
2008,07,12,13,16,24.80
2008,07,12,13,17,24.70
2008,07,12,13,18,24.80
2008,07,12,13,19,24.90
2008,07,12,13,20,25.00
2008,07,12,13,21,25.20
2008,07,12,13,22,25.20
2008,07,12,13,23,25.30
2008,07,12,13,24,25.30
2008,07,12,13,25,25.30
2008,07,12,13,26,25.20
2008,07,12,13,27,25.10
2008,07,12,13,28,25.10
2008,07,12,13,29,25.10
2008,07,12,13,30,25.10
2008,07,12,13,31,25.00
2008,07,12,13,32,24.80
2008,07,12,13,33,24.70
2008,07,12,13,34,24.70
2008,07,12,13,35,24.70
2008,07,12,13,36,24.60
2008,07,12,13,37,24.50
2008,07,12,13,38,24.40
2008,07,12,13,39,24.40
2008,07,12,13,40,24.30
2008,07,12,13,41,24.30
2008,07,12,13,42,24.40
2008,07,12,13,43,24.40
2008,07,12,13,44,24.50
2008,07,12,13,45,24.60
2008,07,12,13,46,24.70
2008,07,12,13,47,24.60
2008,07,12,13,48,24.50
2008,07,12,13,49,24.40
2008,07,12,13,50,24.40
2008,07,12,13,51,24.30
2008,07,12,13,52,24.20
2008,07,12,13,53,24.10
2008,07,12,13,54,24.00
2008,07,12,13,55,23.90
2008,07,12,13,56,24.00
2008,07,12,13,57,24.10
2008,07,12,13,58,24.10
2008,07,12,13,59,24.00
2008,07,12,14,00,23.90
2008,07,12,14,01,23.90
2008,07,12,14,02,23.80
2008,07,12,14,03,23.80
2008,07,12,14,04,23.80
2008,07,12,14,05,23.80
2008,07,12,14,06,23.80
2008,07,12,14,07,23.80
2008,07,12,14,08,23.90
2008,07,12,14,09,23.90
2008,07,12,14,10,24.00
2008,07,12,14,11,24.10
2008,07,12,14,12,24.20
2008,07,12,14,13,24.20
2008,07,12,14,14,24.20
2008,07,12,14,15,24.20
2008,07,12,14,16,24.20
2008,07,12,14,17,24.30
2008,07,12,14,18,24.20
2008,07,12,14,19,24.10
2008,07,12,14,20,24.00
2008,07,12,14,21,23.90
2008,07,12,14,22,23.80
2008,07,12,14,23,23.70
2008,07,12,14,24,23.60
2008,07,12,14,25,23.60
2008,07,12,14,26,23.70
2008,07,12,14,27,23.80
2008,07,12,14,28,23.80
2008,07,12,14,29,23.90
2008,07,12,14,30,23.90
2008,07,12,14,31,23.90
2008,07,12,14,32,24.00
2008,07,12,14,33,24.00
2008,07,12,14,34,24.00
2008,07,12,14,35,24.00
2008,07,12,14,36,24.10
2008,07,12,14,37,24.10
2008,07,12,14,38,24.00
2008,07,12,14,39,23.90
2008,07,12,14,40,23.90
2008,07,12,14,41,23.90
2008,07,12,14,42,24.00
2008,07,12,14,43,24.10
2008,07,12,14,44,24.20
2008,07,12,14,45,24.30
2008,07,12,14,46,24.50
2008,07,12,14,47,24.60
2008,07,12,14,48,24.60
2008,07,12,14,49,24.60
2008,07,12,14,50,24.60
2008,07,12,14,51,24.60
2008,07,12,14,52,24.60
2008,07,12,14,53,24.60
2008,07,12,14,54,24.60
2008,07,12,14,55,24.50
2008,07,12,14,56,24.50
2008,07,12,14,57,24.40
2008,07,12,14,58,24.40
2008,07,12,14,59,24.40
2008,07,12,15,00,24.40
2008,07,12,15,01,24.30
2008,07,12,15,02,24.20
2008,07,12,15,03,24.20
2008,07,12,15,04,24.20
2008,07,12,15,05,24.20
2008,07,12,15,06,24.20
2008,07,12,15,07,24.20
2008,07,12,15,08,24.20
2008,07,12,15,09,24.30
2008,07,12,15,10,24.30
2008,07,12,15,11,24.30
2008,07,12,15,12,24.30
2008,07,12,15,13,24.30
2008,07,12,15,14,24.30
2008,07,12,15,15,24.30
2008,07,12,15,16,24.30
2008,07,12,15,17,24.30
2008,07,12,15,18,24.30
2008,07,12,15,19,24.30
2008,07,12,15,20,24.30
2008,07,12,15,21,24.30
2008,07,12,15,22,24.20
2008,07,12,15,23,24.20
2008,07,12,15,24,24.30
2008,07,12,15,25,24.20
2008,07,12,15,26,24.30
2008,07,12,15,27,24.30
2008,07,12,15,28,24.30
2008,07,12,15,29,24.30
2008,07,12,15,30,24.30
2008,07,12,15,31,24.30
2008,07,12,15,32,24.30
2008,07,12,15,33,24.20
2008,07,12,15,34,24.20
2008,07,12,15,35,24.20
2008,07,12,15,36,24.20
2008,07,12,15,37,24.20
2008,07,12,15,38,24.20
2008,07,12,15,39,24.20
2008,07,12,15,40,24.20
2008,07,12,15,41,24.20
2008,07,12,15,42,24.20
2008,07,12,15,43,24.20
2008,07,12,15,44,24.30
2008,07,12,15,45,24.30
2008,07,12,15,46,24.30
2008,07,12,15,47,24.40
2008,07,12,15,48,24.40
2008,07,12,15,49,24.40
2008,07,12,15,50,24.50
2008,07,12,15,51,24.50
2008,07,12,15,52,24.50
2008,07,12,15,53,24.50
2008,07,12,15,54,24.50
2008,07,12,15,55,24.60
2008,07,12,15,56,24.60
2008,07,12,15,57,24.70
2008,07,12,15,58,24.70
2008,07,12,15,59,24.70
2008,07,12,16,00,24.70
2008,07,12,16,01,24.70
2008,07,12,16,02,24.70
2008,07,12,16,03,24.70
2008,07,12,16,04,24.70
2008,07,12,16,05,24.70
2008,07,12,16,06,24.70
2008,07,12,16,07,24.60
2008,07,12,16,08,24.60
2008,07,12,16,09,24.60
2008,07,12,16,10,24.50
2008,07,12,16,11,24.40
2008,07,12,16,12,24.40
2008,07,12,16,13,24.40
2008,07,12,16,14,24.40
2008,07,12,16,15,24.40
2008,07,12,16,16,24.40
2008,07,12,16,17,24.40
2008,07,12,16,18,24.40
2008,07,12,16,19,24.40
2008,07,12,16,20,24.30
2008,07,12,16,21,24.30
2008,07,12,16,22,24.20
2008,07,12,16,23,24.30
2008,07,12,16,24,24.30
2008,07,12,16,25,24.30
2008,07,12,16,26,24.20
2008,07,12,16,27,24.20
2008,07,12,16,28,24.10
2008,07,12,16,29,24.10
2008,07,12,16,30,24.10
2008,07,12,16,31,24.20
2008,07,12,16,32,24.20
2008,07,12,16,33,24.20
2008,07,12,16,34,24.30
2008,07,12,16,35,24.40
2008,07,12,16,36,24.50
2008,07,12,16,37,24.50
2008,07,12,16,38,24.60
2008,07,12,16,39,24.70
2008,07,12,16,40,24.80
2008,07,12,16,41,24.90
2008,07,12,16,42,25.00
2008,07,12,16,43,25.10
2008,07,12,16,44,25.10
2008,07,12,16,45,25.30
2008,07,12,16,46,25.30
2008,07,12,16,47,25.40
2008,07,12,16,48,25.40
2008,07,12,16,49,25.40
2008,07,12,16,50,25.40
2008,07,12,16,51,25.50
2008,07,12,16,52,25.40
2008,07,12,16,53,25.40
2008,07,12,16,54,25.40
2008,07,12,16,55,25.30
2008,07,12,16,56,25.30
2008,07,12,16,57,25.30
2008,07,12,16,58,25.30
2008,07,12,16,59,25.40
2008,07,12,17,00,25.40
2008,07,12,17,01,25.50
2008,07,12,17,02,25.60
2008,07,12,17,03,25.70
2008,07,12,17,04,25.70
2008,07,12,17,05,25.80
2008,07,12,17,06,25.90
2008,07,12,17,07,25.90
2008,07,12,17,08,26.00
2008,07,12,17,09,26.10
2008,07,12,17,10,26.10
2008,07,12,17,11,26.20
2008,07,12,17,12,26.30
2008,07,12,17,13,26.40
2008,07,12,17,14,26.40
2008,07,12,17,15,26.30
2008,07,12,17,16,26.20
2008,07,12,17,17,26.10
2008,07,12,17,18,26.00
2008,07,12,17,19,26.00